Hourly Data Report for October 01, 2017

All times are specified in Local Standard Time (LST). Add 1 hour to adjust for Daylight Saving Time where and when it is observed.

RANKIN INLET A
NUNAVUT

62°48'38.000" N
92°06'53.000" W
32.30 m
2303405
71083
YRT

Download Data

Hourly Data (October 2017)
Hourly Data Report for October 1, 2017
Temp Definition
°C
Dew Point Temp Definition
°C
Rel Hum Definition
%
Wind Dir Definition
10's deg

Wind Spd Definition
km/h
Visibility Definition
km
Stn Press Definition
kPa
Hmdx Definition


Wind Chill Definition


Weather Definition


TIME
00:00 Legend Double Dagger -1.9 -4.8 80 7 13 24.1 101.85   -6 Clear
01:00 Legend Double Dagger -1.7 -4.9 79 8 15 24.1 101.85   -7 LegendNANA
02:00 Legend Double Dagger -1.2 -4.6 78 10 16 24.1 101.87   -6 LegendNANA
03:00 Legend Double Dagger -1.5 -4.4 81 9 16 24.1 101.85   -6 Clear
04:00 Legend Double Dagger -1.1 -3.4 84 9 18 24.1 101.86   -6 LegendNANA
05:00 Legend Double Dagger -1.3 -3.4 85 9 15 24.1 101.86   -6 LegendNANA
06:00 Legend Double Dagger 0.1 -3.4 77 13 21 24.1 101.86     Mostly Cloudy
07:00 Legend Double Dagger 0.4 -3.3 76 14 23 24.1 101.86     LegendNANA
08:00 Legend Double Dagger 1.1 -3.0 74 14 27 24.1 101.86     LegendNANA
09:00 Legend Double Dagger 1.5 -2.4 76 15 28 24.1 101.86     Mostly Cloudy
10:00 Legend Double Dagger 2.9 -1.8 71 15 34 24.1 101.84     LegendNANA
11:00 Legend Double Dagger 2.7 -1.5 74 16 36 24.1 101.80     LegendNANA
12:00 Legend Double Dagger 2.8 -1.0 76 16 40 24.1 101.74     Mostly Cloudy
13:00 Legend Double Dagger 3.1 -1.0 74 16 37 24.1 101.68     LegendNANA
14:00 Legend Double Dagger 2.8 -1.2 75 16 46 24.1 101.63     LegendNANA
15:00 Legend Double Dagger 3.1 -0.6 77 17 46 24.1 101.57     Mostly Cloudy
16:00 Legend Double Dagger 3.3 -0.1 79 17 45 24.1 101.54     LegendNANA
17:00 Legend Double Dagger 3.4 0.8 83 17 38 24.1 101.50     Rain
18:00 Legend Double Dagger 3.7 0.8 81 17 44 24.1 101.44     Cloudy
19:00 Legend Double Dagger 3.8 1.3 84 17 43 24.1 101.38     LegendNANA
20:00 Legend Double Dagger 4.1 1.7 84 17 47 16.1 101.28     LegendNANA
21:00 Legend Double Dagger 4.3 2.0 85 17 49 16.1 101.23     Cloudy
22:00 Legend Double Dagger 4.5 2.5 86 18 41 24.1 101.19     LegendNANA
23:00 Legend Double Dagger 4.7 2.8 88 18 41 24.1 101.12     LegendNANA

Notes on Data Quality.

Legend

  • E = Estimated
  • M = Missing
  • NA = Not Available
  • ‡ = Partner data that is not subject to review by the National Climate Archives
Date modified: